Time,TemperatureF,DewpointF,PressureIn,WindDirection,WindDirectionDegrees,WindSpeedMPH,WindSpeedGustMPH,Humidity,HourlyPrecipIn,Conditions,Clouds,dailyrainin,SolarRadiationWatts/m^2,SoftwareType,DateUTC
2013-10-10 00:42:00,39.0,27.0,-100.00,WNW,286,3.0,6.0,62,0.00,,,0.00,0.000000,,2013-10-10 06:42:00,
2013-10-10 00:53:00,39.0,27.0,-100.00,WNW,286,3.0,6.0,62,0.00,,,0.00,0.000000,,2013-10-10 06:53:00,
2013-10-10 01:02:00,39.0,27.0,-100.00,WNW,286,3.0,6.0,62,0.00,,,0.00,0.000000,,2013-10-10 07:02:00,
2013-10-10 03:03:00,37.0,27.0,-100.00,WSW,253,2.0,6.0,68,-99.99,,,0.00,0.000000,,2013-10-10 09:03:00,
2013-10-10 03:43:00,37.0,27.0,-100.00,WSW,253,2.0,6.0,68,-99.99,,,0.00,0.000000,,2013-10-10 09:43:00,
2013-10-10 03:53:00,37.0,27.0,-100.00,WSW,253,2.0,6.0,68,-99.99,,,0.00,0.000000,,2013-10-10 09:53:00,
2013-10-10 04:42:00,35.0,26.0,-100.00,WNW,286,2.0,7.0,69,0.00,,,0.00,0.000000,,2013-10-10 10:42:00,
2013-10-10 04:53:00,35.0,26.0,-100.00,WNW,286,2.0,7.0,69,0.00,,,0.00,0.000000,,2013-10-10 10:53:00,
2013-10-10 05:02:00,35.0,26.0,-100.00,WNW,286,2.0,7.0,69,0.00,,,0.00,0.000000,,2013-10-10 11:02:00,
2013-10-10 08:42:00,33.0,28.0,-100.00,SW,236,4.0,6.0,80,-99.99,,,0.00,3.000000,,2013-10-10 14:42:00,
2013-10-10 08:52:00,33.0,28.0,-100.00,SW,236,4.0,6.0,80,-99.99,,,0.00,3.000000,,2013-10-10 14:52:00,
2013-10-10 09:02:00,33.0,28.0,-100.00,SW,236,4.0,6.0,80,-99.99,,,0.00,3.000000,,2013-10-10 15:02:00,
2013-10-10 11:52:00,47.0,32.0,-100.00,ENE,63,5.0,8.0,55,-99.99,,,0.00,493.000000,,2013-10-10 17:52:00,
2013-10-10 12:02:00,47.0,32.0,-100.00,ENE,63,5.0,8.0,55,-99.99,,,0.00,493.000000,,2013-10-10 18:02:00,
2013-10-10 12:52:00,51.0,34.0,-100.00,NE,42,4.0,8.0,51,0.00,,,0.00,631.000000,,2013-10-10 18:52:00,
2013-10-10 13:01:00,51.0,34.0,-100.00,NE,42,4.0,8.0,51,0.00,,,0.00,631.000000,,2013-10-10 19:01:00,
2013-10-10 13:22:00,52.0,33.0,-100.00,NE,41,4.0,10.0,48,0.00,,,0.00,715.000000,,2013-10-10 19:22:00,
2013-10-10 13:32:00,52.0,33.0,-100.00,NE,41,4.0,10.0,48,0.00,,,0.00,715.000000,,2013-10-10 19:32:00,
2013-10-10 13:42:00,52.0,33.0,-100.00,NE,41,4.0,10.0,48,0.00,,,0.00,715.000000,,2013-10-10 19:42:00,
2013-10-10 13:53:00,52.0,33.0,-100.00,NE,41,4.0,10.0,48,0.00,,,0.00,715.000000,,2013-10-10 19:53:00,
2013-10-10 14:02:00,52.0,33.0,-100.00,NE,41,4.0,10.0,48,0.00,,,0.00,715.000000,,2013-10-10 20:02:00,
2013-10-10 14:03:00,57.0,34.0,-100.00,NE,34,6.0,10.0,41,0.00,,,0.00,690.000000,,2013-10-10 20:03:00,
2013-10-10 14:22:00,57.0,34.0,-100.00,NE,34,6.0,10.0,41,0.00,,,0.00,690.000000,,2013-10-10 20:22:00,
2013-10-10 14:32:00,57.0,34.0,-100.00,NE,34,6.0,10.0,41,0.00,,,0.00,690.000000,,2013-10-10 20:32:00,
2013-10-10 14:42:00,57.0,34.0,-100.00,NE,34,6.0,10.0,41,0.00,,,0.00,690.000000,,2013-10-10 20:42:00,
2013-10-10 14:52:00,57.0,34.0,-100.00,NE,34,6.0,10.0,41,0.00,,,0.00,690.000000,,2013-10-10 20:52:00,
2013-10-10 15:03:00,58.0,31.0,-100.00,NNE,23,17.0,23.0,35,0.00,,,0.00,670.000000,,2013-10-10 21:03:00,
2013-10-10 15:22:00,58.0,31.0,-100.00,NNE,23,17.0,23.0,35,0.00,,,0.00,670.000000,,2013-10-10 21:22:00,
2013-10-10 15:34:00,58.0,31.0,-100.00,NNE,23,17.0,23.0,35,0.00,,,0.00,670.000000,,2013-10-10 21:34:00,
2013-10-10 15:44:00,58.0,31.0,-100.00,NNE,23,17.0,23.0,35,0.00,,,0.00,670.000000,,2013-10-10 21:44:00,
2013-10-10 15:54:00,58.0,31.0,-100.00,NNE,23,17.0,23.0,35,0.00,,,0.00,670.000000,,2013-10-10 21:54:00,
2013-10-10 16:03:00,57.0,27.0,-100.00,NNE,16,19.0,29.0,32,0.00,,,0.00,563.000000,,2013-10-10 22:03:00,
2013-10-10 16:43:00,57.0,27.0,-100.00,NNE,16,19.0,29.0,32,0.00,,,0.00,563.000000,,2013-10-10 22:43:00,
2013-10-10 16:53:00,57.0,27.0,-100.00,NNE,16,19.0,29.0,32,0.00,,,0.00,563.000000,,2013-10-10 22:53:00,
2013-10-10 17:23:00,54.0,23.0,-100.00,NNE,12,17.0,32.0,30,0.00,,,0.00,234.000000,,2013-10-10 23:23:00,
2013-10-10 17:33:00,54.0,23.0,-100.00,NNE,12,17.0,32.0,30,0.00,,,0.00,234.000000,,2013-10-10 23:33:00,
2013-10-10 17:43:00,54.0,23.0,-100.00,NNE,12,17.0,32.0,30,0.00,,,0.00,234.000000,,2013-10-10 23:43:00,
2013-10-10 17:52:00,54.0,23.0,-100.00,NNE,12,17.0,32.0,30,0.00,,,0.00,234.000000,,2013-10-10 23:52:00,
2013-10-10 18:02:00,54.0,23.0,-100.00,NNE,12,17.0,32.0,30,0.00,,,0.00,234.000000,,2013-10-11 00:02:00,
2013-10-10 18:42:00,52.0,23.0,-100.00,North,11,18.0,30.0,32,0.00,,,0.00,143.000000,,2013-10-11 00:42:00,
2013-10-10 18:52:00,52.0,23.0,-100.00,North,11,18.0,30.0,32,0.00,,,0.00,143.000000,,2013-10-11 00:52:00,
2013-10-10 19:01:00,52.0,23.0,-100.00,North,11,18.0,30.0,32,0.00,,,0.00,143.000000,,2013-10-11 01:01:00,
2013-10-10 19:42:00,49.0,26.0,-100.00,NNE,15,15.0,28.0,40,0.00,,,0.00,24.000000,,2013-10-11 01:42:00,
2013-10-10 19:52:00,49.0,26.0,-100.00,NNE,15,15.0,28.0,40,0.00,,,0.00,24.000000,,2013-10-11 01:52:00,
2013-10-10 20:02:00,49.0,26.0,-100.00,NNE,15,15.0,28.0,40,0.00,,,0.00,24.000000,,2013-10-11 02:02:00,
2013-10-10 20:42:00,47.0,25.0,-100.00,SSE,164,2.0,20.0,42,0.00,,,0.00,0.000000,,2013-10-11 02:42:00,
2013-10-10 20:52:00,47.0,25.0,-100.00,SSE,164,2.0,20.0,42,0.00,,,0.00,0.000000,,2013-10-11 02:52:00,
2013-10-10 21:02:00,47.0,25.0,-100.00,SSE,164,2.0,20.0,42,0.00,,,0.00,0.000000,,2013-10-11 03:02:00,
2013-10-10 21:03:00,45.0,24.0,-100.00,NNE,22,9.0,27.0,43,0.00,,,0.00,0.000000,,2013-10-11 03:03:00,
2013-10-10 21:45:00,45.0,24.0,-100.00,NNE,22,9.0,27.0,43,0.00,,,0.00,0.000000,,2013-10-11 03:45:00,
2013-10-10 21:54:00,45.0,24.0,-100.00,NNE,22,9.0,27.0,43,0.00,,,0.00,0.000000,,2013-10-11 03:54:00,
2013-10-10 22:03:00,47.0,26.0,-100.00,South,181,7.0,18.0,43,0.00,,,0.00,0.000000,,2013-10-11 04:03:00,
2013-10-10 22:44:00,47.0,26.0,-100.00,South,181,7.0,18.0,43,0.00,,,0.00,0.000000,,2013-10-11 04:44:00,
2013-10-10 22:53:00,47.0,26.0,-100.00,South,181,7.0,18.0,43,0.00,,,0.00,0.000000,,2013-10-11 04:53:00,
2013-10-10 23:23:00,44.0,25.0,-100.00,SSW,192,2.0,18.0,47,0.00,,,0.00,0.000000,,2013-10-11 05:23:00,
2013-10-10 23:34:00,44.0,25.0,-100.00,SSW,192,2.0,18.0,47,0.00,,,0.00,0.000000,,2013-10-11 05:34:00,
2013-10-10 23:43:00,44.0,25.0,-100.00,SSW,192,2.0,18.0,47,0.00,,,0.00,0.000000,,2013-10-11 05:43:00,
2013-10-10 23:52:00,44.0,25.0,-100.00,SSW,192,2.0,18.0,47,0.00,,,0.00,0.000000,,2013-10-11 05:52:00,